Theta_e
325 324 331 333 334 336 342 346 352 351 345 343 340 339 334 331 332 330 332 337 333 329 328 331 334 333 335 334 335 335 334 331 330
323 324 329 332 334 335 341 345 350 348 345 344 341 339 336 334 334 334 335 334 333 331 335 333 334 334 333 334 335 335 332 331 330
323 324 330 332 334 337 341 347 348 347 346 343 343 340 339 339 338 336 335 334 332 332 331 334 333 334 334 333 333 333 332 329 330
322 325 327 332 337 338 342 347 347 345 345 344 341 341 339 339 339 337 336 334 332 333 334 335 334 334 333 332 332 333 332 330 330
319 323 327 332 334 336 342 344 344 344 345 343 340 340 340 336 331 332 334 333 332 333 333 334 334 333 333 333 332 331 330 328 330
321 321 330 331 328 333 342 342 341 342 343 342 339 338 339 335 333 331 331 333 333 333 332 332 331 333 331 331 331 330 331 329 329
323 324 334 333 338 340 341 342 339 338 339 340 338 339 338 335 334 333 333 334 334 334 333 332 333 333 332 331 331 331 332 331 327
317 321 327 334 335 341 340 340 338 338 336 337 338 336 335 334 335 334 335 334 335 334 333 334 333 332 331 331 333 333 326 329 331
317 318 319 328 337 338 340 340 338 337 334 334 335 334 334 337 336 335 335 334 335 333 332 333 333 331 330 330 333 328 328 328 324
317 319 320 319 323 337 340 342 340 336 334 335 334 333 334 335 336 334 334 335 335 335 333 331 329 330 330 328 329 327 327 328 323
318 319 321 321 325 339 342 341 338 337 337 333 332 332 333 334 334 334 334 333 333 333 331 329 329 329 328 329 329 324 323 325 321
320 324 325 326 327 340 342 339 338 336 334 332 333 332 333 335 334 333 333 334 333 332 331 330 331 330 328 327 326 319 319 320 319
325 326 327 327 329 339 340 339 337 334 332 332 332 333 334 336 335 334 334 334 334 332 331 329 328 324 328 325 321 319 318 318 317
326 325 328 332 333 338 338 339 337 332 331 330 333 333 335 336 336 335 335 335 333 332 330 322 322 324 326 325 323 319 317 315 315
326 325 330 332 337 338 339 338 335 330 329 333 335 335 335 337 337 338 338 335 334 331 328 325 324 322 323 321 322 316 314 315 313
323 328 331 335 338 336 334 335 334 326 320 319 330 337 336 337 338 338 331 332 331 327 326 326 324 321 320 317 319 316 314 311 311
327 331 330 329 327 323 322 324 324 324 324 324 322 326 336 335 336 333 332 329 326 324 323 320 320 318 315 316 315 307 306 308 308
329 329 329 330 326 326 324 324 324 324 325 325 322 321 324 333 333 329 318 313 313 319 305 307 313 310 310 309 306 303 299 301 304
326 326 329 327 323 323 323 325 325 325 322 323 321 321 328 328 326 323 319 312 305 300 300 297 297 298 305 302 301 298 297 296 295
326 325 326 327 326 326 325 324 323 326 325 325 328 329 324 324 318 320 320 313 309 304 302 300 298 298 299 300 300 298 297 297 296
Wind_Speed
15 10 20 23 21 19 22 20 19 18 15 9 8 8 8 7 7 3 3 3 4 3 2 2 3 3 4 3 3 3 4 2 2
16 16 12 17 21 20 21 19 20 20 17 13 10 8 7 7 6 5 5 5 4 2 3 2 2 3 1 2 3 3 2 2 2
14 14 17 19 17 18 17 18 18 18 17 17 12 10 8 6 7 7 6 5 5 4 3 2 2 2 2 3 4 4 3 3 3
15 16 14 16 18 17 18 17 17 17 16 16 12 11 9 7 7 7 7 6 5 5 4 4 4 4 4 5 5 5 4 4 5
8 11 18 21 23 15 16 18 17 17 16 15 13 10 10 8 8 6 6 6 6 5 5 4 5 4 4 4 5 6 5 6 4
7 8 12 19 19 21 21 19 18 17 16 15 14 11 10 9 8 8 8 7 6 5 5 6 5 4 5 6 6 7 7 6 7
8 8 9 18 19 22 22 20 20 17 17 16 15 14 12 11 10 9 8 7 7 7 7 6 6 7 7 7 7 7 7 7 6
4 4 7 9 14 21 21 19 19 17 17 16 17 15 14 14 10 9 8 8 8 8 7 7 7 6 5 6 5 5 4 2 4
6 5 7 7 9 15 21 20 20 20 17 16 16 15 15 12 12 10 9 8 8 7 7 7 6 5 5 6 4 5 8 4 5
5 3 4 5 5 9 17 18 17 18 10 3 12 13 13 13 13 11 11 9 7 7 8 6 6 4 4 6 6 9 7 5 2
9 6 7 5 5 5 14 13 13 14 18 15 12 12 9 11 9 10 9 7 7 8 5 6 5 6 6 5 5 6 5 2 4
8 8 3 4 4 7 13 16 17 16 13 11 11 10 11 10 10 9 7 7 7 6 5 5 6 5 6 5 5 3 5 5 5
6 6 4 3 4 6 13 14 17 15 12 7 8 10 11 8 8 8 8 8 8 7 5 7 3 4 4 4 5 5 9 6 1
7 7 8 3 1 8 11 13 14 14 10 8 11 8 7 8 8 8 9 9 6 6 6 2 4 5 5 3 1 6 8 6 1
7 8 5 5 4 7 8 13 14 10 9 8 7 8 7 7 7 9 8 8 6 6 5 2 6 7 5 2 2 5 2 4 5
5 9 6 4 8 15 15 14 12 16 9 17 21 7 3 5 6 7 5 5 4 4 4 2 11 5 3 1 3 5 8 4 6
6 9 15 18 19 17 13 10 12 12 13 16 19 18 6 6 5 1 4 6 4 1 2 2 5 3 3 3 4 4 4 4 4
5 6 6 11 13 11 9 1 2 2 10 16 13 11 5 7 3 5 5 5 1 3 3 0 3 2 3 4 3 1 3 3 4
7 6 5 9 11 13 8 6 4 2 6 10 9 8 7 4 0 2 5 5 6 14 9 5 8 6 6 3 6 3 3 7 10
10 8 6 9 8 4 5 8 8 6 8 8 11 5 3 1 2 3 6 5 7 6 1 2 5 7 9 9 4 7 9 10 7
Wind_Direction
193 162 180 176 175 173 167 165 161 157 154 156 169 174 172 148 148 153 200 172 155 143 164 174 174 151 158 207 255 265 254 253 288
202 203 173 164 179 169 168 165 164 160 160 158 168 181 162 157 166 172 162 154 143 156 118 157 131 149 167 280 303 297 262 255 277
206 197 191 172 161 162 169 168 164 161 164 165 169 163 167 176 186 189 180 166 176 193 220 213 233 227 238 276 295 301 278 264 260
198 184 163 124 148 185 170 163 163 162 164 165 164 166 169 182 195 192 183 173 193 204 212 215 218 221 237 251 269 278 273 243 243
117 117 165 173 175 177 177 166 164 167 167 164 174 166 168 171 172 175 188 188 194 202 201 223 223 233 249 262 269 269 258 244 239
153 152 156 177 176 194 179 171 169 169 169 168 169 171 160 166 172 183 189 185 187 199 205 217 235 236 241 248 253 257 258 237 236
162 182 175 165 171 178 182 177 174 170 170 167 171 174 170 170 181 184 192 189 195 203 211 219 233 228 232 241 248 252 257 257 240
158 187 211 197 168 181 182 179 173 177 174 170 176 176 173 179 179 177 185 191 199 200 209 220 225 234 248 261 256 254 215 245 236
177 211 242 209 210 176 183 180 173 174 175 170 168 177 177 173 173 179 188 198 203 203 219 227 225 233 235 263 258 222 240 219 259
145 212 244 274 232 201 182 181 168 171 118 305 160 158 163 171 175 180 195 199 194 202 214 204 225 238 233 263 261 263 267 265 286
178 200 224 239 292 192 175 159 146 144 159 171 177 163 169 170 168 182 197 189 192 212 201 209 214 231 240 248 256 281 253 332 277
156 133 175 216 238 179 158 156 159 149 159 161 164 162 190 176 173 193 188 190 199 210 199 217 212 222 249 245 269 112 154 209 257
108 147 186 222 266 155 162 161 154 151 158 156 171 183 192 174 171 174 187 192 200 203 192 214 172 266 253 256 166 173 210 204 269
172 196 187 179 43 150 174 152 141 151 157 185 197 182 156 164 176 184 197 206 193 191 179 148 272 235 263 277 6 195 211 221 284
226 210 180 173 125 149 139 132 129 135 172 197 169 158 165 176 188 204 213 197 179 195 152 246 7 279 273 1 69 81 346 327 258
253 223 175 127 84 52 48 74 74 67 42 47 354 110 126 178 205 207 197 152 132 42 42 72 249 244 235 99 66 69 54 354 322
23 86 94 99 86 70 48 19 78 100 76 58 31 336 38 7 356 45 64 54 79 56 177 244 225 98 95 100 104 53 9 348 343
110 104 114 108 109 97 101 170 103 193 126 116 157 257 323 285 190 208 121 86 334 153 82 108 93 109 113 102 98 13 252 275 300
114 108 112 98 105 130 157 188 201 230 135 140 198 210 242 248 246 66 133 143 81 37 75 45 75 77 112 61 121 170 275 271 253
150 135 121 113 123 137 182 225 202 205 226 233 225 166 200 290 280 217 144 131 138 141 299 41 76 86 79 87 82 4 330 310 268